Regional Weather Roundup
Issued by NWS

Home | Current Version | Previous Version | Graphics & Text | Print | Product List | Glossary Off
Versions: 1 2 3 4 5 6 7 8 9 10 11 12 13 14 15 16 17 18 19 20 21 22 23 24 25 26 27 28 29 30 31 32 33 34 35 36 37 38 39 40 41 42 43 44 45 46

000
ASUS45 KBOU 192210
RWRCO

WEATHER ROUNDUP FOR COLORADO
NATIONAL WEATHER SERVICE PUEBLO CO
400 PM MDT THU APR 19 2018

NOTE: "FAIR" INDICATES FEW OR NO CLOUDS BELOW 12000 FEET WITH NO
SIGNIFICANT WEATHER AND/OR OBSTRUCTIONS TO VISIBILITY.

COZ001>005-013-030-031-192300-
...NORTHWEST COLORADO...

CITY           SKY/WX    TMP DP  RH WIND       PRES   REMARKS
CRAIG          CLOUDY    65  16  15 E6        29.86F
HAYDEN         CLOUDY    64   9  11 SE5       29.89F
MEEKER         CLOUDY    68   9  10 S13       29.85F
RABBIT EARS PA NOT AVBL
STEAMBOAT SPGS FAIR      63   6  10 S13G20    29.90F
WALDEN         FAIR      59   1  10 SW13G18   29.98F
$$

COZ006>008-011-192300-
...WEST CENTRAL VALLEYS...

CITY           SKY/WX    TMP DP  RH WIND       PRES   REMARKS
GRAND JUNCTION CLOUDY    72   8   8 S6        29.74F
MONTROSE       CLOUDY    70   4   7 SW16      29.81F
EAGLE          CLOUDY    68   5   8 S16       29.88F
RIFLE          CLOUDY    68  17  14 W12       29.81F
DELTA          NOT AVBL
NUCLA          NOT AVBL
$$

COZ017>023-064>068-192300-
...SOUTHWEST COLORADO...

CITY           SKY/WX    TMP DP  RH WIND       PRES   REMARKS
DURANGO        CLOUDY    65  12  12 SE20G31   29.94F
CORTEZ         CLOUDY    66   8  10 SE22G41   29.81F
PAGOSA SPRINGS CLOUDY    62   5  10 S9G16     30.04F
TELLURIDE      CLOUDY    55   7  14 S25G40    30.00F
WOLF CREEK PAS CLOUDY    36  14  41 S23G41    30.26S
$$

COZ009-010-012-014-032>034-037-058>063-192300-
...CENTRAL COLORADO...

CITY           SKY/WX    TMP DP  RH WIND       PRES   REMARKS
ASPEN          CLOUDY    62   3   9 S15G25    29.94F
BUENA VISTA    FAIR      62   5  10 SE17G25   30.01F
COPPER MTN     NOT AVBL
BERTHOUD PASS  FAIR      28  18  64 S9G24     30.21F WCI  20
COTTONWOOD PAS CLOUDY    55   3  12 SE14G26   30.10F
GUNNISON       CLOUDY    62   8  12 S8        29.95F
KREMMLING      CLOUDY    68  -2   6 S12G20    29.94F
LEADVILLE      CLOUDY    49   9  19 SE15G26   30.07F
MONARCH PASS   CLOUDY    41   9  26 S14G25    30.31F
SALIDA         FAIR      60   8  13 SE17G33   30.08F
SUNLIGHT       CLOUDY    41  10  28 S7G28     30.11F
WILKERSON PASS CLOUDY    41   5  22 S10G21    30.24F
$$

COZ069>075-192300-
...SAN LUIS VALLEY/SANGRE DE CRISTO MOUNTAINS...

CITY           SKY/WX    TMP DP  RH WIND       PRES   REMARKS
ALAMOSA        MOSUNNY   65  13  13 S29G36    30.01F
DEL NORTE      FAIR      63  13  14 SW15G25   30.01F
LA VETA PASS   PTSUNNY   55  12  18 S26G41    30.28F
SAGUACHE       NOT AVBL
$$

COZ035-036-038>040-192300-
...NORTHERN COLORADO FRONT RANGE...

CITY           SKY/WX    TMP DP  RH WIND       PRES   REMARKS
DENVER INTL AP PTSUNNY   67  15  13 S26G38    30.01F
DMNS CITY PARK NOT AVBL
AURORA         PTSUNNY   65  15  14 S28G37    30.00F
FRONT RANGE AP PTSUNNY   68  14  12 S10G35    30.03F
ERIE MUNI ARPT FAIR      61  17  17 NW7       30.06F
BOULDER MUN AP FAIR      59  19  21 NE3       30.02F
CENTENNIAL     CLOUDY    62  16  16 S35G47    30.01F
BROOMFIELD     PTSUNNY   61  19  20 N6        30.03F
LOVELAND       CLOUDY    62  21  20 W9        30.02F
LONGMONT       FAIR      64  19  17 N7        30.04F
$$

COZ041-046-047-076>085-087-088-192300-
...PIKES PEAK/PALMER DIVIDE AND SOUTHERN FOOTHILLS...

CITY           SKY/WX    TMP DP  RH WIND       PRES   REMARKS
COLO. SPRINGS  PTSUNNY   63  15  15 SE15G28   30.09F
A. F. ACADEMY  MOSUNNY   59  12  15 S15       30.08F
SCHRIEVER AFB  NOT AVBL
CHEYENNE MTN   NOT AVBL
ELLICOTT         N/A    N/A N/A N/A S26G37    30.07F
FALCON         FAIR      60  10  13 S22G30    30.12F
FORT CARSON    MOSUNNY   64  12  13 E9        30.05F
LIMON          SUNNY     64  14  14 SE31G40   30.10F
MONUMENT HILL  MOSUNNY   55  14  19 S26G33    30.11F
CANON CITY     FAIR      68  18  14 E17G24    30.01F
WALSENBURG     FAIR      70  18  13 SE32      30.00F
TRINIDAD       SUNNY     67  13  12 S36G47    30.05F
$$

COZ042>045-048>051-090-091-192300-
...NORTHEAST COLORADO...

CITY           SKY/WX    TMP DP  RH WIND       PRES   REMARKS
GREELEY ARPT   PTSUNNY   70  16  12 SE22G32   30.00
AKRON          MOSUNNY   61  26  26 S32G47    30.12F
BURLINGTON     CLOUDY    61  25  25 S30G44    30.19F
WRAY           FAIR      64  27  24 S18G35    30.19F
YUMA           NOT AVBL
STERLING       NOT AVBL
HOLYOKE        FAIR      64  27  24 S22G32    30.19F
FORT MORGAN    FAIR      64  17  16 SE26G33   30.08F
$$

COZ086-089-092>099-192300-
...SOUTHEAST COLORADO...

CITY           SKY/WX    TMP DP  RH WIND       PRES   REMARKS
PUEBLO         SUNNY     73  17  12 SE21G39   29.99F
LA JUNTA       PTSUNNY   70  14  11 SE28G38   30.06F
LAMAR          MOSUNNY   69  20  15 S26G43    30.11F
SPRINGFIELD      N/A     66  20  17 S28G43    30.15F
$$





USA.gov is the U.S. government's official web portal to all federal, state and local government web resources and services.